Regional Weather Roundup
Issued by NWS Cleveland, OH

Home | Current Version | Previous Version | Graphics & Text | Print | Product List | Glossary On
Versions: 1 2 3 4 5 6 7 8 9 10 11 12 13 14 15 16 17 18 19 20 21 22 23 24 25 26 27 28 29 30 31 32 33 34 35 36 37 38 39 40 41 42 43 44 45 46 47 48 49 50
000
ASUS41 KCLE 031510
RWRCLE
OHIO REGIONAL WEATHER ROUNDUP
NATIONAL WEATHER SERVICE CLEVELAND, OH
1100 AM EDT FRI JUL 03 2015

NOTE: "FAIR" INDICATES FEW OR NO CLOUDS BELOW 12,000 FEET WITH NO
SIGNIFICANT WEATHER AND/OR OBSTRUCTIONS TO VISIBILITY.

OHZ001>008-015>018-024>027-034-035-043-044-031600-
   NORTHWEST OHIO

CITY           SKY/WX    TMP DP  RH WIND       PRES   REMARKS
DEFIANCE       SUNNY     70  56  61 E8        29.97F
FINDLAY        MOSUNNY   70  55  59 NE8       29.95F
TOLEDO EXPRESS MOSUNNY   69  56  62 NE10      29.97F
TOLEDO EXEC    MOSUNNY   70  56  61 NE9       29.98F
LIMA           PTSUNNY   68  56  65 E6        29.96S
$$

OHZ009>014-019>023-028>033-038-089-031600-
   NORTHEAST OHIO

CITY           SKY/WX    TMP DP  RH WIND       PRES   REMARKS
CLE-HOPKINS    MOSUNNY   70  53  54 NE10      29.98F
CLE-LAKEFRONT  MOSUNNY   71  55  56 N12       29.96F
CUY CO. ARPT   PTSUNNY   70  55  60 E9        29.98F
LORAIN-ELYRIA  MOSUNNY   69  51  52 E3        29.98S
ASHTABULA      MOSUNNY   69  49  48 E10       30.00F
AKRON-CANTON   PTSUNNY   71  57  61 SE7       29.97F
WOOSTER        MOSUNNY   71  56  58 SE7       29.97F
MANSFIELD      MOSUNNY   69  54  58 E9        29.97F
YOUNGSTOWN     PTSUNNY   69  56  62 CALM      29.99S
$$

OHZ042-051>053-060>062-070>072-077>081-031600-
  SOUTHWEST OHIO

CITY           SKY/WX    TMP DP  RH WIND       PRES   REMARKS
CINC-COVINGTON CLOUDY    72  64  78 NE7       29.89S
CINC-LUNKEN    CLOUDY    72  64  76 N7        29.89S
HAMILTON       CLOUDY    71  63  75 NE8       29.91S
DAYTON         CLOUDY    71  60  68 E7        29.94S
WRIGHT-PAT AFB PTSUNNY   72  59  64 E7        29.92S
DAYTON GENERAL PTSUNNY   69  60  73 E8        29.91S
WILMINGTON     PTSUNNY   68  60  75 E9        29.91S
$$

OHZ036-037-039>041-045>050-054>059-063>069-073>076-082>088-031600-
  CENTRAL AND SOUTHEAST OHIO

CITY           SKY/WX    TMP DP  RH WIND       PRES   REMARKS
COLUMBUS       CLOUDY    72  60  66 NE9       29.92F
OSU AIRPORT    PTSUNNY   72  59  63 E9        29.93F
BOLTON FIELD   MOSUNNY   72  61  68 NE7       29.92F
RICKENBACK AFB CLOUDY    68  60  74 NE8       29.92F
NEWARK         PTSUNNY   71  60  68 VRB3      29.93F
MARION         MOSUNNY   71  56  58 E9        29.95F
LANCASTER      CLOUDY    72  61  68 E8        29.92F
ZANESVILLE     NOT AVBL
NEW PHILLY     MOSUNNY   71  59  65 E7        29.96F
$$


USA.gov is the U.S. government's official web portal to all federal, state and local government web resources and services.